SCP
4 4 3 2 2 2 3 2 1 0 0 0 0 0 0 1 1 2 2 2 0 0 0 0 0 0 0 0 0 0 0 0 0 0 0 0 0 0
5 5 4 3 3 4 4 3 1 1 0 0 0 0 0 0 0 0 1 1 0 0 0 0 0 0 0 0 0 0 0 0 0 0 0 0 0 0
5 5 4 4 4 3 4 3 2 1 1 0 0 0 0 0 0 0 0 0 0 0 0 0 0 0 0 0 0 0 0 0 0 0 0 0 0 0
4 5 5 7 4 4 5 3 2 2 2 1 0 0 0 0 0 1 1 0 0 0 0 0 0 0 0 0 0 0 0 0 0 0 0 0 0 0
3 3 3 3 3 3 2 2 2 2 1 1 0 1 1 1 1 1 0 0 0 0 0 0 0 0 0 0 0 0 0 0 0 0 0 0 0 0
1 2 2 2 2 2 2 2 1 1 1 1 0 0 0 0 1 1 0 0 0 0 0 0 0 0 0 0 0 0 0 0 0 0 0 0 0 0
2 2 1 0 0 0 0 0 0 0 0 0 0 0 0 0 0 1 0 0 0 1 1 0 0 0 0 0 0 0 0 0 0 0 0 0 0 0
1 0 0 0 0 0 0 0 0 0 0 0 0 0 -0 0 0 1 0 0 0 0 0 1 1 0 0 0 0 0 0 0 0 0 0 0 0 0
1 1 0 0 0 0 0 0 0 0 0 0 0 0 0 0 0 0 0 0 0 0 0 0 0 0 0 0 0 0 0 0 0 0 0 0 0 0
1 1 0 0 0 0 0 0 0 0 0 0 0 0 0 0 0 0 0 0 0 0 -0 -0 0 0 0 0 0 0 0 0 0 0 0 0 0 0
0 0 0 0 0 0 0 0 0 0 0 -0 -0 0 0 0 0 0 0 0 -0 -0 -0 -0 0 0 1 0 0 0 0 0 0 0 0 0 0 0
1 1 0 0 0 0 0 0 0 0 0 0 0 0 0 0 0 0 0 0 0 0 0 0 0 1 0 0 0 0 0 0 0 0 0 0 0 0
0 0 0 0 0 0 0 0 0 0 0 0 0 0 0 0 0 0 0 0 0 0 0 0 0 0 0 0 0 0 0 0 0 0 0 0 0 0
0 0 0 0 0 0 0 0 0 0 0 -0 -0 0 0 0 0 0 0 0 -0 -0 0 0 0 0 0 0 0 0 0 0 0 0 0 0 0 0
1 0 0 0 0 0 0 0 0 0 -0 -0 -0 -0 0 0 0 0 0 -0 0 0 0 0 0 0 0 0 0 0 0 0 0 0 0 0 0 0
0 0 0 0 0 0 0 0 0 -0 -0 -0 -0 -0 0 0 0 0 0 0 0 0 0 0 0 0 0 0 0 0 0 0 0 0 0 0 0 0
0 0 0 0 0 0 0 -0 -0 -0 -0 -0 -0 -0 0 0 0 0 0 0 0 0 0 0 0 0 0 0 0 0 0 0 0 0 0 0 0 0
0 0 0 0 0 0 0 -0 -0 -0 -0 0 0 0 0 0 0 0 0 0 0 0 0 0 0 0 0 0 -0 0 0 0 0 0 0 0 0 0
0 0 0 0 0 0 0 -0 -0 -0 -0 0 0 0 0 0 0 0 0 -0 0 0 0 0 0 0 0 0 0 -0 0 0 0 0 0 0 0 0
0 0 0 0 0 -0 -0 -0 -0 -0 0 0 0 0 0 0 0 -0 0 0 0 0 0 0 0 0 0 0 0 0 -0 0 0 0 0 0 0 0
0 0 -0 -0 -0 -0 -0 -0 0 0 0 0 0 0 0 0 0 0 -0 0 0 0 0 0 0 -0 -0 -0 0 0 0 -0 0 0 0 0 0 0
0 -0 -0 -0 -0 -0 -0 -0 -0 -0 0 0 0 0 0 -0 0 0 0 0 0 0 0 0 -0 0 0 0 0 0 0 0 0 -0 0 0 0 0
0 0 0 -0 0 0 0 0 -0 0 0 0 0 0 0 -0 0 0 0 0 0 0 0 0 0 0 0 -0 0 0 0 0 0 0 0 0 0 0
Wind_Speed_500mb
52 60 62 49 49 51 52 51 48 51 52 46 52 51 45 38 58 49 57 66 68 60 63 56 56 59 62 62 60 61 49 46 45 43 44 46 47 48
56 53 57 53 51 56 57 56 51 50 55 48 43 54 40 38 43 51 59 68 67 62 62 53 53 56 61 62 65 61 53 48 46 46 47 47 47 47
56 50 49 51 49 48 52 56 51 55 58 58 53 60 55 53 63 53 53 53 58 66 59 54 49 51 58 59 66 61 55 48 47 50 47 47 46 46
41 46 46 45 50 54 62 57 57 58 57 54 57 62 58 59 68 63 61 56 51 51 51 58 57 57 54 55 63 61 50 48 46 49 45 46 46 45
38 42 39 41 44 46 47 45 39 36 36 47 57 59 63 62 57 57 60 57 46 46 45 57 48 53 57 55 54 50 50 44 44 45 45 46 46 45
35 33 31 26 26 25 24 26 29 31 33 38 43 51 56 59 56 55 49 29 36 34 26 36 48 55 52 52 47 51 44 43 43 43 43 45 45 44
31 28 27 27 30 30 23 22 28 28 28 33 41 48 55 53 46 48 42 39 42 35 26 33 39 36 45 48 48 48 43 41 42 42 42 44 44 41
34 27 24 30 31 31 28 28 30 30 34 33 36 46 54 43 41 48 41 41 43 36 26 33 32 39 26 31 35 44 38 37 37 39 41 42 39 37
36 32 28 22 16 17 15 21 22 21 28 28 37 46 53 53 44 45 45 43 48 49 49 48 27 45 35 39 32 38 29 34 35 36 36 33 30 33
37 34 30 24 22 19 18 19 21 22 26 29 37 45 45 42 40 46 49 50 50 58 56 50 36 37 33 37 34 28 31 33 32 32 30 27 27 27
40 37 36 32 29 32 25 23 24 26 26 31 38 44 43 46 50 58 58 49 51 56 70 59 45 30 25 28 30 30 33 32 30 25 20 19 20 20
44 45 46 42 36 39 35 32 29 29 29 37 54 58 50 51 48 50 53 50 54 60 66 57 35 26 15 23 26 25 26 21 20 14 9 10 13 13
53 48 46 48 46 47 43 42 40 40 49 55 57 52 47 44 40 42 47 51 58 65 44 39 28 27 21 15 19 14 13 10 12 10 3 3 5 6
59 51 49 47 46 45 44 47 43 46 53 51 48 50 47 44 44 53 50 57 56 54 39 30 27 25 26 20 19 12 11 8 14 9 4 5 1 1
67 58 52 48 47 46 53 55 53 55 55 44 48 50 46 50 45 44 39 24 29 33 31 26 28 23 22 16 20 19 15 9 14 10 6 11 10 8
81 75 57 57 53 44 48 49 52 51 41 45 50 50 54 43 38 24 26 31 31 25 21 23 20 19 20 19 21 21 17 12 19 17 14 14 9 3
57 59 48 51 45 48 49 47 46 46 47 47 44 46 48 34 30 29 31 32 26 26 23 28 28 26 22 21 22 20 21 21 20 19 16 11 6 4
56 46 47 45 48 51 52 49 46 46 48 47 47 47 39 34 37 32 28 22 32 30 31 36 33 30 24 23 21 25 19 16 16 14 11 10 9 9
51 45 50 53 54 54 54 53 54 49 45 44 43 48 35 35 45 29 24 21 34 33 34 39 35 28 26 21 23 21 20 21 25 26 16 8 6 9
56 55 53 48 49 52 55 54 51 46 45 42 43 44 33 34 34 31 31 33 31 34 29 32 30 26 27 28 35 33 25 24 22 21 14 9 5 6
58 61 57 53 53 52 52 50 48 46 44 40 44 39 36 35 38 38 48 37 34 31 32 27 27 24 35 26 42 34 24 17 13 8 13 12 11 12
59 53 50 53 51 50 49 46 44 43 40 46 43 39 42 35 37 35 35 36 33 31 35 32 31 29 32 30 34 34 29 24 20 14 12 6 6 5
57 53 50 44 49 48 48 47 42 39 41 37 35 33 25 36 36 32 31 29 35 44 44 43 40 29 31 34 36 34 33 29 21 20 16 10 5 3
Wind_Direction_500mb
240 250 249 244 240 245 247 242 243 258 263 277 277 280 281 273 262 276 285 287 293 270 271 265 258 251 261 257 251 249 251 258 266 276 274 270 266 261
234 238 242 244 247 243 242 242 239 247 259 268 260 276 285 276 270 274 273 281 281 260 266 261 270 261 260 259 249 244 248 255 265 274 277 270 268 264
236 236 243 245 238 239 239 242 239 244 249 268 260 271 281 280 272 276 277 285 278 263 265 260 264 271 270 263 249 243 247 253 266 277 275 269 268 265
238 242 240 239 242 240 239 246 244 241 249 259 271 275 277 274 280 283 276 283 277 265 262 262 259 263 269 257 249 240 249 256 269 277 273 269 268 264
234 243 242 242 244 246 245 246 250 258 261 267 270 273 273 273 275 277 274 277 271 263 269 261 254 252 260 251 244 243 247 258 272 273 273 272 269 263
231 219 235 229 231 236 240 248 252 255 262 267 275 284 281 274 271 275 275 261 284 292 280 262 256 258 246 247 240 241 249 261 270 271 273 274 269 263
216 214 227 221 216 215 221 238 237 249 260 266 273 273 269 266 268 270 275 266 284 292 277 253 271 256 249 245 238 242 248 262 268 272 275 275 270 258
203 196 210 223 226 233 239 249 258 266 267 264 267 272 275 286 278 273 278 278 283 284 311 310 259 282 288 266 251 249 253 258 265 275 278 276 265 252
190 187 192 220 227 239 261 270 274 288 294 296 279 272 266 262 273 277 282 278 270 280 293 302 267 254 249 242 244 256 255 263 270 278 279 270 257 247
191 194 198 206 220 219 226 254 266 274 282 288 291 294 290 289 267 266 271 274 264 268 290 295 273 256 240 251 248 254 262 265 269 275 277 264 253 247
200 208 217 220 222 242 253 260 271 280 288 300 299 300 299 290 268 266 267 269 267 271 283 289 267 259 239 248 244 251 268 269 264 275 274 257 250 248
211 217 226 227 237 248 260 266 270 283 291 291 299 306 305 282 279 269 264 264 251 265 262 260 246 234 212 236 262 263 264 255 254 266 277 257 249 247
219 227 232 243 250 252 262 262 275 290 295 300 304 307 301 288 278 270 270 261 253 252 250 225 257 226 218 199 218 260 271 279 221 210 231 340 291 270
222 229 235 247 251 259 263 269 278 287 291 294 294 295 294 286 273 278 271 264 255 245 251 230 243 226 215 206 189 208 196 146 142 150 83 70 64 88
221 232 236 242 245 251 260 268 276 281 286 285 286 287 289 278 285 282 264 219 216 224 242 250 220 225 221 206 178 164 159 167 166 155 124 128 138 163
225 221 228 241 246 247 254 266 275 281 279 279 281 278 280 288 286 235 202 197 206 215 235 194 198 185 169 173 164 161 166 138 144 158 155 140 144 143
221 220 228 232 238 247 255 262 267 272 273 273 279 279 286 283 249 205 196 202 219 220 196 190 189 177 172 148 142 157 150 143 159 169 175 165 143 115
216 215 223 228 236 245 252 259 263 266 269 269 274 272 268 262 228 201 200 208 228 200 192 188 183 171 167 143 147 159 140 142 161 165 150 152 140 91
213 221 227 231 238 245 252 257 262 263 263 264 271 268 256 232 210 221 214 234 221 203 193 192 178 172 161 150 153 154 156 149 169 166 170 189 123 101
221 228 233 236 240 245 249 253 256 256 257 260 262 256 254 224 214 226 225 216 212 192 178 183 181 178 176 168 151 137 125 153 171 170 181 163 124 61
226 231 234 239 239 242 247 248 250 252 254 257 261 248 242 209 206 222 230 213 192 182 177 165 172 179 173 157 144 141 145 150 169 173 156 139 92 61
226 231 236 232 235 235 240 244 247 249 251 250 258 241 238 212 232 233 207 195 175 174 162 162 151 149 147 156 148 145 141 136 134 144 149 144 139 134
225 226 226 231 230 231 234 239 240 241 246 258 235 233 226 221 225 207 200 186 175 158 154 151 156 148 131 143 143 136 128 119 117 127 113 99 88 42
Wind_Speed_850mb
52 60 62 49 49 51 52 51 48 51 52 46 52 51 45 38 58 49 57 66 68 60 63 56 56 59 62 62 60 61 49 46 45 43 44 46 47 48
56 53 57 53 51 56 57 56 51 50 55 48 43 54 40 38 43 51 59 68 67 62 62 53 53 56 61 62 65 61 53 48 46 46 47 47 47 47
56 50 49 51 49 48 52 56 51 55 58 58 53 60 55 53 63 53 53 53 58 66 59 54 49 51 58 59 66 61 55 48 47 50 47 47 46 46
41 46 46 45 50 54 62 57 57 58 57 54 57 62 58 59 68 63 61 56 51 51 51 58 57 57 54 55 63 61 50 48 46 49 45 46 46 45
38 42 39 41 44 46 47 45 39 36 36 47 57 59 63 62 57 57 60 57 46 46 45 57 48 53 57 55 54 50 50 44 44 45 45 46 46 45
35 33 31 26 26 25 24 26 29 31 33 38 43 51 56 59 56 55 49 29 36 34 26 36 48 55 52 52 47 51 44 43 43 43 43 45 45 44
31 28 27 27 30 30 23 22 28 28 28 33 41 48 55 53 46 48 42 39 42 35 26 33 39 36 45 48 48 48 43 41 42 42 42 44 44 41
34 27 24 30 31 31 28 28 30 30 34 33 36 46 54 43 41 48 41 41 43 36 26 33 32 39 26 31 35 44 38 37 37 39 41 42 39 37
36 32 28 22 16 17 15 21 22 21 28 28 37 46 53 53 44 45 45 43 48 49 49 48 27 45 35 39 32 38 29 34 35 36 36 33 30 33
37 34 30 24 22 19 18 19 21 22 26 29 37 45 45 42 40 46 49 50 50 58 56 50 36 37 33 37 34 28 31 33 32 32 30 27 27 27
40 37 36 32 29 32 25 23 24 26 26 31 38 44 43 46 50 58 58 49 51 56 70 59 45 30 25 28 30 30 33 32 30 25 20 19 20 20
44 45 46 42 36 39 35 32 29 29 29 37 54 58 50 51 48 50 53 50 54 60 66 57 35 26 15 23 26 25 26 21 20 14 9 10 13 13
53 48 46 48 46 47 43 42 40 40 49 55 57 52 47 44 40 42 47 51 58 65 44 39 28 27 21 15 19 14 13 10 12 10 3 3 5 6
59 51 49 47 46 45 44 47 43 46 53 51 48 50 47 44 44 53 50 57 56 54 39 30 27 25 26 20 19 12 11 8 14 9 4 5 1 1
67 58 52 48 47 46 53 55 53 55 55 44 48 50 46 50 45 44 39 24 29 33 31 26 28 23 22 16 20 19 15 9 14 10 6 11 10 8
81 75 57 57 53 44 48 49 52 51 41 45 50 50 54 43 38 24 26 31 31 25 21 23 20 19 20 19 21 21 17 12 19 17 14 14 9 3
57 59 48 51 45 48 49 47 46 46 47 47 44 46 48 34 30 29 31 32 26 26 23 28 28 26 22 21 22 20 21 21 20 19 16 11 6 4
56 46 47 45 48 51 52 49 46 46 48 47 47 47 39 34 37 32 28 22 32 30 31 36 33 30 24 23 21 25 19 16 16 14 11 10 9 9
51 45 50 53 54 54 54 53 54 49 45 44 43 48 35 35 45 29 24 21 34 33 34 39 35 28 26 21 23 21 20 21 25 26 16 8 6 9
56 55 53 48 49 52 55 54 51 46 45 42 43 44 33 34 34 31 31 33 31 34 29 32 30 26 27 28 35 33 25 24 22 21 14 9 5 6
58 61 57 53 53 52 52 50 48 46 44 40 44 39 36 35 38 38 48 37 34 31 32 27 27 24 35 26 42 34 24 17 13 8 13 12 11 12
59 53 50 53 51 50 49 46 44 43 40 46 43 39 42 35 37 35 35 36 33 31 35 32 31 29 32 30 34 34 29 24 20 14 12 6 6 5
57 53 50 44 49 48 48 47 42 39 41 37 35 33 25 36 36 32 31 29 35 44 44 43 40 29 31 34 36 34 33 29 21 20 16 10 5 3
Wind_Direction_850mb
240 250 249 244 240 245 247 242 243 258 263 277 277 280 281 273 262 276 285 287 293 270 271 265 258 251 261 257 251 249 251 258 266 276 274 270 266 261
234 238 242 244 247 243 242 242 239 247 259 268 260 276 285 276 270 274 273 281 281 260 266 261 270 261 260 259 249 244 248 255 265 274 277 270 268 264
236 236 243 245 238 239 239 242 239 244 249 268 260 271 281 280 272 276 277 285 278 263 265 260 264 271 270 263 249 243 247 253 266 277 275 269 268 265
238 242 240 239 242 240 239 246 244 241 249 259 271 275 277 274 280 283 276 283 277 265 262 262 259 263 269 257 249 240 249 256 269 277 273 269 268 264
234 243 242 242 244 246 245 246 250 258 261 267 270 273 273 273 275 277 274 277 271 263 269 261 254 252 260 251 244 243 247 258 272 273 273 272 269 263
231 219 235 229 231 236 240 248 252 255 262 267 275 284 281 274 271 275 275 261 284 292 280 262 256 258 246 247 240 241 249 261 270 271 273 274 269 263
216 214 227 221 216 215 221 238 237 249 260 266 273 273 269 266 268 270 275 266 284 292 277 253 271 256 249 245 238 242 248 262 268 272 275 275 270 258
203 196 210 223 226 233 239 249 258 266 267 264 267 272 275 286 278 273 278 278 283 284 311 310 259 282 288 266 251 249 253 258 265 275 278 276 265 252
190 187 192 220 227 239 261 270 274 288 294 296 279 272 266 262 273 277 282 278 270 280 293 302 267 254 249 242 244 256 255 263 270 278 279 270 257 247
191 194 198 206 220 219 226 254 266 274 282 288 291 294 290 289 267 266 271 274 264 268 290 295 273 256 240 251 248 254 262 265 269 275 277 264 253 247
200 208 217 220 222 242 253 260 271 280 288 300 299 300 299 290 268 266 267 269 267 271 283 289 267 259 239 248 244 251 268 269 264 275 274 257 250 248
211 217 226 227 237 248 260 266 270 283 291 291 299 306 305 282 279 269 264 264 251 265 262 260 246 234 212 236 262 263 264 255 254 266 277 257 249 247
219 227 232 243 250 252 262 262 275 290 295 300 304 307 301 288 278 270 270 261 253 252 250 225 257 226 218 199 218 260 271 279 221 210 231 340 291 270
222 229 235 247 251 259 263 269 278 287 291 294 294 295 294 286 273 278 271 264 255 245 251 230 243 226 215 206 189 208 196 146 142 150 83 70 64 88
221 232 236 242 245 251 260 268 276 281 286 285 286 287 289 278 285 282 264 219 216 224 242 250 220 225 221 206 178 164 159 167 166 155 124 128 138 163
225 221 228 241 246 247 254 266 275 281 279 279 281 278 280 288 286 235 202 197 206 215 235 194 198 185 169 173 164 161 166 138 144 158 155 140 144 143
221 220 228 232 238 247 255 262 267 272 273 273 279 279 286 283 249 205 196 202 219 220 196 190 189 177 172 148 142 157 150 143 159 169 175 165 143 115
216 215 223 228 236 245 252 259 263 266 269 269 274 272 268 262 228 201 200 208 228 200 192 188 183 171 167 143 147 159 140 142 161 165 150 152 140 91
213 221 227 231 238 245 252 257 262 263 263 264 271 268 256 232 210 221 214 234 221 203 193 192 178 172 161 150 153 154 156 149 169 166 170 189 123 101
221 228 233 236 240 245 249 253 256 256 257 260 262 256 254 224 214 226 225 216 212 192 178 183 181 178 176 168 151 137 125 153 171 170 181 163 124 61
226 231 234 239 239 242 247 248 250 252 254 257 261 248 242 209 206 222 230 213 192 182 177 165 172 179 173 157 144 141 145 150 169 173 156 139 92 61
226 231 236 232 235 235 240 244 247 249 251 250 258 241 238 212 232 233 207 195 175 174 162 162 151 149 147 156 148 145 141 136 134 144 149 144 139 134
225 226 226 231 230 231 234 239 240 241 246 258 235 233 226 221 225 207 200 186 175 158 154 151 156 148 131 143 143 136 128 119 117 127 113 99 88 42